User: anonymous   Login
Location: Caltech
(34.1382°N, 118.1253°W)
Time: 14:16:15
(UTC-07:00)
Language:

Cosmos 1939 Rocket - Orbit

View from above orbital plane
View from above orbital plane
View from above satellite
View from above satellite

Ground track
Ground track

The orbit data is extracted from the following two-line orbital elements,

1 19046U 88032B   17141.95316346 +.00000977 +00000-0 +77644-4 0  9997
2 19046 097.5286 189.6285 0037183 059.0764 301.4108 15.02193889568418
Epoch (UTC): 21 May 2017 22:52:33
Eccentricity: 0.0037183
inclination: 97.5286°
perigee height: 534 km
apogee height: 586 km
right ascension of ascending node: 189.6285°
argument of perigee: 59.0764°
revolutions per day: 15.02193889
mean anomaly at epoch: 301.4108°
orbit number at epoch: 56841

The dashed part of the orbit path shows where the satellite is in the earth's shadow,  

DLR